[Date Prev][Date Next][Thread Prev][Thread Next] - [Date Index][Thread Index][Author Index]

2 Line ISS Keps 8-23



ISS 
1 25544U 98067A   03235.54411317  .00020130  00000-0  23549-3 0  3827
2 25544  51.6324  41.1446 0007459 159.1757 325.2917 15.61528731271528


----
Via the sarex mailing list at AMSAT.ORG courtesy of AMSAT-NA.
To unsubscribe, send "unsubscribe sarex" to Majordomo@amsat.org



AMSAT Top AMSAT Home